Карточка аэропорта USPP

Внимание!
Информация на этой странице в стадии наполнения.
Если вы не увидели какой-то информации, или заметили неточность - пожалуйста сообщите нам!
Спасибо!
Команда RU-STAFF
Название аэропортаБольшое Савино
Название аэропорта (англ.)Bolshoe Savino
Превышение404 ft. (123.1 m.)
Координаты57°55.866', 56°1.6019999999999'
Высота перехода3700ft
Эшелон переходаQNH>1013:FL50; 1013>QNH>977:FL60; 977>QNH:FL70;
Коды ответчика5610-5617
Зона ОрВДЕкатеринбург РПИ (USSV)
Данные METARUSPP 241330Z 00000MPS CAVOK 13/00 Q1023 R21/090060 NOSIG RMK QFE756
Проноз погоды (TAF)USPP 241053Z 2412/2512 31003G14MPS 9999 -SHRA BKN020CB TEMPO 2412/2415 35003G14MPS BECMG 2415/2416 22003G14MPS BECMG 2502/2504 27003G14MPS
NOTAMshow/hide NOTAM
AWOS   TABLE

Информация о ВПП

ВПП Длина ВПП (м.) Покрытие Курс ВПП Частота ILS
033204Железобетон31 
213204Железобетон211109.9

Диспетчерские позиции

Позывной Наименование органа УВД Частота
USPP_R_APPПермь-Круг121.700
USPP_TWRПермь-Старт124.000
USPP_APPПермь-Подход127.100



Спутниковое изображение